Regional Weather Roundup
Issued by NWS

Home | Current Version | Previous Version | Graphics & Text | Print | Product List | Glossary On
Versions: 1 2 3 4 5 6 7 8 9 10 11 12 13 14 15 16 17 18 19 20 21 22 23 24 25 26 27 28 29 30 31 32 33 34 35 36 37 38 39 40 41 42 43 44 45 46 47 48 49 50
000
ASUS43 KFSD 301410
RWRSD

WEATHER ROUNDUP FOR SOUTH DAKOTA
NATIONAL WEATHER SERVICE SIOUX FALLS SD
900 AM CDT SAT AUG 30 2014

NOTE: "FAIR" INDICATES FEW OR NO CLOUDS BELOW 12,000 FEET WITH NO
SIGNIFICANT WEATHER AND/OR OBSTRUCTIONS TO VISIBILITY.


SDZ001>005-009-010-012>017-301500-
NORTHWEST AND NORTH CENTRAL SOUTH DAKOTA

CITY           SKY/WX    TMP DP  RH WIND       PRES   REMARKS
BUFFALO          N/A     58  55  90 SE15      29.84F
FAITH            N/A     55  54  96 SE15      29.94F
MOBRIDGE       SUNNY     56  55  97 SE6       29.94F
$$

SDZ012>016-024>037-041>051-057-063-072>074-301500-
SOUTHWEST AND SOUTH CENTRAL SOUTH DAKOTA

CITY           SKY/WX    TMP DP  RH WIND       PRES   REMARKS
RAPID CTY ARPT SUNNY     57  56  96 SE10      29.92F
PIERRE         SUNNY     57  55  93 E3        29.96S
CUSTER         SUNNY     59  51  75 SW3       30.03F
ELLSWORTH AFB  SUNNY     59  57  92 SE12      29.92F
PHILIP         SUNNY     57  56  96 E7        29.96F
PINE RIDGE     SUNNY     61  55  81 CALM      29.96S
WINNER         FOG       56  55  97 SW6       29.99S VSB<1/4
$$

SDZ004>011-016>023-039-040-301500-
NORTHEAST SOUTH DAKOTA

CITY           SKY/WX    TMP DP  RH WIND       PRES   REMARKS
ABERDEEN       CLOUDY    57  55  93 N8        29.95S
WATERTOWN      CLOUDY    60  57  89 NW10      29.92S
SISSETON         N/A     59  56  89 N8        29.91S
$$

SDZ017-020-022-023-036>040-048>070-301500-
SOUTHEAST SOUTH DAKOTA

CITY           SKY/WX    TMP DP  RH WIND       PRES   REMARKS
SIOUX FALLS    CLOUDY    65  62  90 NW9       29.92S
HURON          CLOUDY    61  57  87 N9        29.94S
CHAMBERLAIN    CLOUDY    56  55  95 NE3       29.97S
MITCHELL       CLOUDY    60  58  92 N8        29.96R
YANKTON        CLOUDY    61  57  88 W8        29.96R
$$

ABBREVIATIONS USED IN REMARKS
   TC - TEMPERATURE IN CELSIUS
  WCI - WIND CHILL INDEX
   HX - HEAT INDEX
  VSB - VISIBILITY



USA.gov is the U.S. government's official web portal to all federal, state and local government web resources and services.